Weather History for Saratoga Shively Field Airpor, WY

Change the Weather History Date:

Friday, April 11, 2014

  Actual Average Record
Temperature  
Mean Temperature 47 °F -  
Max Temperature 66 °F 53 °F 66 °F (2014)
Min Temperature 28 °F 28 °F 28 °F (2014)
Degree Days  
Heating Degree Days 18    
Moisture  
Dew Point 22 °F    
Average Humidity 39    
Maximum Humidity 74    
Minimum Humidity 18    
Precipitation  
Precipitation 0.00 in - - ()
Sea Level Pressure  
Sea Level Pressure 30.03 in    
Wind  
Wind Speed 10 mph (SW)    
Max Wind Speed 26 mph    
Max Gust Speed 37 mph    
Visibility 10 miles    
Events      
Averages and records for this station are not official NWS values.
T = Trace of Precipitation, MM = Missing Value Source: NWS Daily Summary

Daily Weather History Graph

Daily Weather History Graph

Search for Another Location

Airport:

Trip Planner

Search our weather history database for the weather conditions in past years. The results will help you decide how hot, cold, wet, or windy it might be!

Date:

Astronomy

Apr. 11, 2014 Rise Set
Actual Time 6:33 AM MDT 7:43 PM MDT
Civil Twilight 6:05 AM MDT 8:11 PM MDT
Nautical Twilight 5:31 AM MDT 8:46 PM MDT
Astronomical Twilight 4:55 AM MDT 9:21 PM MDT
Moon 4:24 PM MDT (4/11) 4:32 AM MDT (4/11)
Length of Visible Light 14h 06m
Length of Day
13h 09m
Waxing Gibbous, 87% of the Moon is Illuminated
Apr 11
Waxing Gibbous
Apr 15
Full
Apr 22
Last Quarter
Apr 29
New
May 6
First Quarter

Hourly Weather History & Observations

Time (MDT) Temp. Windchill Dew Point Humidity Pressure Visibility Wind Dir Wind Speed Gust Speed Precip Events Conditions
12:15 AM 42.8 °F 38.0 °F 21.2 °F 42% 30.12 in 10.0 mi WSW 8.1 mph - N/A   Clear
12:35 AM 37.4 °F 33.8 °F 21.2 °F 52% 30.13 in 10.0 mi SW 4.6 mph - N/A   Clear
12:55 AM 37.4 °F - 21.2 °F 52% 30.13 in 10.0 mi Calm Calm - N/A   Clear
1:15 AM 35.6 °F - 21.2 °F 56% 30.13 in 10.0 mi Calm Calm - N/A   Clear
1:35 AM 35.6 °F 28.6 °F 21.2 °F 56% 30.13 in 10.0 mi SSW 9.2 mph - N/A   Clear
1:55 AM 33.8 °F 29.6 °F 21.2 °F 60% 30.12 in 10.0 mi South 4.6 mph - N/A   Clear
2:15 AM 35.6 °F - 21.2 °F 56% 30.12 in 10.0 mi Calm Calm - N/A   Clear
2:35 AM 35.6 °F - 21.2 °F 56% 30.12 in 10.0 mi Calm Calm - N/A   Clear
2:55 AM 33.8 °F - 21.2 °F 60% 30.11 in 10.0 mi Calm Calm - N/A   Clear
3:15 AM 33.8 °F - 23.0 °F 65% 30.11 in 10.0 mi Calm Calm - N/A   Clear
3:35 AM 33.8 °F 29.6 °F 23.0 °F 65% 30.11 in 10.0 mi SE 4.6 mph - N/A   Clear
3:55 AM 32.0 °F 27.5 °F 23.0 °F 69% 30.11 in 10.0 mi SE 4.6 mph - N/A   Clear
4:15 AM 32.0 °F 26.4 °F 21.2 °F 64% 30.11 in 10.0 mi SE 5.8 mph - N/A   Clear
4:35 AM 32.0 °F 27.5 °F 21.2 °F 64% 30.11 in 10.0 mi SE 4.6 mph - N/A   Clear
4:55 AM 30.2 °F 26.7 °F 21.2 °F 69% 30.11 in 10.0 mi SE 3.5 mph - N/A   Clear
5:15 AM 28.4 °F 22.2 °F 21.2 °F 74% 30.11 in 10.0 mi SE 5.8 mph - N/A   Clear
5:35 AM 28.4 °F 24.6 °F 21.2 °F 74% 30.12 in 10.0 mi SSE 3.5 mph - N/A   Clear
5:55 AM 28.4 °F 22.2 °F 21.2 °F 74% 30.11 in 10.0 mi SE 5.8 mph - N/A   Clear
6:15 AM 30.2 °F 24.3 °F 21.2 °F 69% 30.11 in 10.0 mi SE 5.8 mph - N/A   Clear
6:35 AM 30.2 °F 24.3 °F 21.2 °F 69% 30.11 in 10.0 mi SE 5.8 mph - N/A   Clear
6:55 AM 32.0 °F 24.8 °F 23.0 °F 69% 30.11 in 10.0 mi SSE 8.1 mph - N/A   Clear
7:15 AM 35.6 °F 30.7 °F 23.0 °F 60% 30.11 in 10.0 mi SSE 5.8 mph - N/A   Clear
7:35 AM 35.6 °F 32.8 °F 24.8 °F 65% 30.11 in 10.0 mi SSE 3.5 mph - N/A   Clear
8:15 AM 48.2 °F - 24.8 °F 40% 30.10 in 10.0 mi SW 8.1 mph - N/A   Clear
8:35 AM 50.0 °F - 23.0 °F 35% 30.10 in 10.0 mi SSW 9.2 mph - N/A   Clear
8:55 AM 51.8 °F - 23.0 °F 33% 30.10 in 10.0 mi WSW 18.4 mph 21.9 mph N/A   Clear
9:15 AM 53.6 °F - 23.0 °F 30% 30.09 in 10.0 mi WSW 18.4 mph 28.8 mph N/A   Clear
9:35 AM 55.4 °F - 23.0 °F 29% 30.09 in 10.0 mi WSW 17.3 mph 25.3 mph N/A   Clear
9:55 AM 55.4 °F - 23.0 °F 29% 30.09 in 10.0 mi WSW 17.3 mph 26.5 mph N/A   Clear
10:15 AM 57.2 °F - 24.8 °F 29% 30.09 in 10.0 mi West 13.8 mph 27.6 mph N/A   Clear
10:35 AM 55.4 °F - 23.0 °F 29% 30.09 in 10.0 mi WSW 20.7 mph 27.6 mph N/A   Clear
10:55 AM 57.2 °F - 24.8 °F 29% 30.08 in 10.0 mi West 20.7 mph 27.6 mph N/A   Clear
11:15 AM 59.0 °F - 24.8 °F 27% 30.08 in 10.0 mi WSW 11.5 mph 25.3 mph N/A   Clear
11:35 AM 59.0 °F - 26.6 °F 29% 30.08 in 10.0 mi WSW 19.6 mph 29.9 mph N/A   Clear
11:55 AM 59.0 °F - 23.0 °F 25% 30.06 in 10.0 mi WSW 19.6 mph 32.2 mph N/A   Clear
12:15 PM 60.8 °F - 23.0 °F 23% 30.06 in 10.0 mi WSW 24.2 mph 33.4 mph N/A   Clear
12:35 PM 59.0 °F - 23.0 °F 25% 30.05 in 10.0 mi WSW 16.1 mph 31.1 mph N/A   Clear
12:55 PM 60.8 °F - 23.0 °F 23% 30.03 in 10.0 mi WSW 21.9 mph 34.5 mph N/A   Clear
1:15 PM 62.6 °F - 23.0 °F 22% 30.02 in 10.0 mi WSW 23.0 mph 32.2 mph N/A   Clear
1:35 PM 62.6 °F - 23.0 °F 22% 30.02 in 10.0 mi WSW 25.3 mph 32.2 mph N/A   Clear
1:55 PM 62.6 °F - 23.0 °F 22% 30.01 in 10.0 mi WSW 23.0 mph 33.4 mph N/A   Clear
2:15 PM 62.6 °F - 23.0 °F 22% 30.00 in 10.0 mi WSW 19.6 mph 35.7 mph N/A   Clear
2:35 PM 64.4 °F - 23.0 °F 21% 29.99 in 10.0 mi West 24.2 mph 36.8 mph N/A   Clear
2:55 PM 64.4 °F - 21.2 °F 19% 29.99 in 10.0 mi SW 26.5 mph 31.1 mph N/A   Clear
3:15 PM 64.4 °F - 21.2 °F 19% 29.97 in 10.0 mi SW 20.7 mph 29.9 mph N/A   Clear
3:35 PM 64.4 °F - 21.2 °F 19% 29.96 in 10.0 mi WSW 21.9 mph 34.5 mph N/A   Clear
3:55 PM 66.2 °F - 21.2 °F 18% 29.95 in 10.0 mi SW 24.2 mph 31.1 mph N/A   Clear
4:15 PM 64.4 °F - 19.4 °F 18% 29.95 in 10.0 mi WSW 21.9 mph 32.2 mph N/A   Clear
4:35 PM 66.2 °F - 21.2 °F 18% 29.94 in 10.0 mi WSW 25.3 mph 28.8 mph N/A   Scattered Clouds
4:55 PM 64.4 °F - 19.4 °F 18% 29.93 in 10.0 mi WSW 18.4 mph 31.1 mph N/A   Scattered Clouds
5:15 PM 64.4 °F - 19.4 °F 18% 29.93 in 10.0 mi SW 18.4 mph 31.1 mph N/A   Scattered Clouds
5:35 PM 64.4 °F - 19.4 °F 18% 29.93 in 10.0 mi SW 21.9 mph 27.6 mph N/A   Scattered Clouds
5:55 PM 64.4 °F - 19.4 °F 18% 29.93 in 10.0 mi WSW 18.4 mph 29.9 mph N/A   Clear
6:15 PM 64.4 °F - 19.4 °F 18% 29.92 in 10.0 mi WSW 17.3 mph 26.5 mph N/A   Scattered Clouds
6:35 PM 62.6 °F - 19.4 °F 19% 29.91 in 10.0 mi SW 20.7 mph 28.8 mph N/A   Clear
6:55 PM 62.6 °F - 19.4 °F 19% 29.91 in 10.0 mi WSW 18.4 mph 25.3 mph N/A   Scattered Clouds
7:15 PM 60.8 °F - 21.2 °F 22% 29.91 in 10.0 mi WSW 20.7 mph 26.5 mph N/A   Scattered Clouds
7:35 PM 57.2 °F - 21.2 °F 25% 29.92 in 10.0 mi West 10.4 mph - N/A   Scattered Clouds
7:55 PM 53.6 °F - 23.0 °F 30% 29.92 in 10.0 mi WSW 10.4 mph - N/A   Scattered Clouds
8:15 PM 53.6 °F - 23.0 °F 30% 29.93 in 10.0 mi WSW 9.2 mph - N/A   Scattered Clouds
8:35 PM 50.0 °F - 23.0 °F 35% 29.93 in 10.0 mi WSW 11.5 mph - N/A   Scattered Clouds
8:55 PM 50.0 °F - 23.0 °F 35% 29.93 in 10.0 mi SW 10.4 mph - N/A   Scattered Clouds
9:15 PM 46.4 °F 41.5 °F 23.0 °F 40% 29.94 in 10.0 mi SW 10.4 mph - N/A   Clear
9:35 PM 46.4 °F 41.5 °F 24.8 °F 43% 29.95 in 10.0 mi WSW 10.4 mph - N/A   Clear
9:55 PM 44.6 °F 39.2 °F 23.0 °F 43% 29.95 in 10.0 mi SW 10.4 mph - N/A   Clear
10:15 PM 44.6 °F 38.8 °F 23.0 °F 43% 29.95 in 10.0 mi SSW 11.5 mph - N/A   Clear
10:35 PM 44.6 °F 40.2 °F 23.0 °F 43% 29.94 in 10.0 mi SW 8.1 mph - N/A   Clear
10:55 PM 42.8 °F 37.5 °F 23.0 °F 46% 29.93 in 10.0 mi SW 9.2 mph - N/A   Clear
11:15 PM 42.8 °F 37.5 °F 23.0 °F 46% 29.93 in 10.0 mi SSW 9.2 mph - N/A   Clear
11:35 PM 42.8 °F 38.0 °F 23.0 °F 46% 29.92 in 10.0 mi South 8.1 mph - N/A   Clear
11:55 PM 41.0 °F 38.0 °F 23.0 °F 49% 29.92 in 10.0 mi South 4.6 mph - N/A   Clear